Weather in Napas

Russia / Tomsk District     59°53′25″N   82°00′08″E
temp.,
°C
wind,
m/s
gust,
m/s
humid.,
%
clouds,
%
prec.,
mm/h
press.,
hPa
HPBL,
m
4 august, wed
wed401:00+13s11981 0.1 100615
04:00+12s11987 0.0 100711
07:00+13e11955 0.0 100744
10:00+19se116738 0.0 1008661
13:00+22se225571 0.1 10081444
16:00+23s115158 0.3 10081333
19:00+22nnw115325 0.3 10081185
22:00+17nne228529 0.1 100832
5 august, thu
thu501:00+15nne228986 0.1 100822
04:00+14nne2392100 0.0 100860
07:00+15nne249162 0.0 1009117
10:00+21nne236522 0.0 1008484
13:00+25nne344718 0.0 10081610
16:00+24ene355068 0.0 1007759
19:00+25nne365016 0.0 1007896
22:00+17sw129498 2.9 100761
6 august, fri
fri601:00+15nne249796 4.4 100780
04:00+16nnw249696 2.5 100789
07:00+15nne259522 2.5 1008155
10:00+20ene23775 0.0 1008386
13:00+25ene125211 0.0 10081120
16:00+27ene234796 0.0 10081610
19:00+26ne125983 0.0 1008289
22:00+21n117199 0.0 100911
7 august, sat
sat701:00+18nnw228093 0.0 101012
04:00+17ene119057 0.6 101011
07:00+18ene118734 0.6 101117
10:00+23se00685 0.0 1011294
13:00+28sse12485 0.0 10111016
16:00+29s243718 0.0 10112533
19:00+27ssw245012 0.0 1011282
22:00+20e22770 0.0 101241
8 august, sun
sun801:00+18se228495 0.0 101231
04:00+17se2288100 0.1 101221
07:00+17se248567 0.2 101294
10:00+23sse24655 0.2 1012438
13:00+27se344611 0.2 10111571
16:00+28sse453984 0.0 10112468
19:00+23se2764100 0.0 1011176
22:00+21sse267477 0.0 1011138